This is the latest recevied weather packets stored in our database for station/object OE-11190. If no packets are shown the sender has not sent any weather packets the latest 10 day(s).
| Time | Temp. | Humidity | Pressure | Rain* | Wind** | Luminosity | Snow |
|---|---|---|---|---|---|---|---|
| 1788138681 | 18.89° C | 75% | 1014.4 hPa | 0 mm | - | 0 W/m² | - |
| 1788138308 | 18.89° C | 74% | 1014.4 hPa | 0 mm | - | 0 W/m² | - |
| 1788137708 | 18.89° C | 74% | 1014.4 hPa | 0 mm | - | 0 W/m² | - |
| 1788136881 | 19.44° C | 72% | 1014.4 hPa | 0 mm | - | 0 W/m² | - |
| 1788136508 | 19.44° C | 71% | 1014.3 hPa | 0 mm | - | 0 W/m² | - |
| 1788135908 | 20° C | 68% | 1014.4 hPa | 0 mm | - | 0 W/m² | - |
| 1788135081 | 20.56° C | 66% | 1014.3 hPa | 0 mm | - | 0 W/m² | - |
| 1788134708 | 20.56° C | 67% | 1014.3 hPa | 0 mm | - | 0 W/m² | - |
| 1788134108 | 20.56° C | 67% | 1014.2 hPa | 0 mm | - | 0 W/m² | - |
| 1788133519 | 20.56° C | 66% | 1014.2 hPa | 0 mm | - | 0 W/m² | - |
| 1788132907 | 20.56° C | 65% | 1014.3 hPa | 0 mm | - | 0 W/m² | - |
| 1788132307 | 20.56° C | 65% | 1014.3 hPa | 0 mm | - | 0 W/m² | - |
| 1788131708 | 20.56° C | 64% | 1014.4 hPa | 0 mm | - | 0 W/m² | - |
| 1788131108 | 20.56° C | 64% | 1014.4 hPa | 0 mm | - | 0 W/m² | - |
| 1788130508 | 20.56° C | 63% | 1014.5 hPa | 0 mm | - | 0 W/m² | - |
| 1788129681 | 20.56° C | 63% | 1014.6 hPa | 0 mm | - | 0 W/m² | - |
| 1788129308 | 20.56° C | 65% | 1014.6 hPa | 0 mm | - | 0 W/m² | - |
| 1788128708 | 20.56° C | 63% | 1014.7 hPa | 0 mm | - | 0 W/m² | - |
| 1788127882 | 20.56° C | 63% | 1014.7 hPa | 0 mm | - | 0 W/m² | - |
| 1788127508 | 21.11° C | 62% | 1014.7 hPa | 0 mm | - | 0 W/m² | - |
| 1788126908 | 20.56° C | 63% | 1014.7 hPa | 0 mm | - | 0 W/m² | - |
| 1788126082 | 21.11° C | 60% | 1014.6 hPa | 0 mm | - | 0 W/m² | - |
| 1788125708 | 21.11° C | 61% | 1014.7 hPa | 0 mm | - | 0 W/m² | - |
| 1788125108 | 21.11° C | 60% | 1014.7 hPa | 0 mm | - | 0 W/m² | - |
| 1788124519 | 21.11° C | 60% | 1014.5 hPa | 0 mm | - | 0 W/m² | - |
* Rain latest hour (hover to see other rain measurements)
** Current wind speed in m/s (hover to see current wind gust speed)